Location: Amsterdam
(30.7274°N, 84.4357°W)
Time: 20:00:50
(UTC+00:00)

Vanguard 1 Rocket - Pass Details

Date: 22 February 2026
Orbit: 653 x 4214 km, 34.3° (Epoch: 11 March)

Event Time Altitude Azimuth Distance (km) Brightness Sun altitude
Rises 03:23:51 0° 274° (W) 7,851 12.8 -50.1°
Reaches altitude 10° 03:33:22 10° 255° (WSW) 7,259 12.3 -52.0°
Maximum altitude 03:44:37 15° 228° (SW) 6,977 11.9 -54.2°
Drops below altitude 10° 03:55:56 10° 201° (SSW) 7,149 11.8 -56.3°
Enters shadow 04:05:15 - 181° (S) 7,610 11.9 -58.0°
